Location: Wangen+im+Allg�u
(47.7098°N, 9.8383°E)
Time: 17:03:05
(UTC+02:00)

ISS - Pass Details

Date: 30 May 2018
Orbit: 403 x 408 km, 51.6° (Epoch: 23 September)

Event Time Altitude Azimuth Distance (km) Brightness Sun altitude
Rises 00:42:44 0° 292° (WNW) 2,326 0.5 -20.1°
Reaches altitude 10° 00:44:52 10° 287° (WNW) 1,462 -0.7 -20.2°
Enters shadow 00:46:47 30° 268° (W) 760 -2.5 -20.2°
